This is the latest recevied weather packets stored in our database for station/object vk4zu-13. If no packets are shown the sender has not sent any weather packets the latest 10 day(s).
| Time | Temp. | Humidity | Pressure | Rain* | Wind** | Luminosity | Snow |
|---|---|---|---|---|---|---|---|
| 1777437303 | 23.89° C | 75% | 1023.7 hPa | 1.27 mm | - | 237 W/m² | - |
| 1777437243 | 23.89° C | 74% | 1023.8 hPa | 1.27 mm | - | 255 W/m² | - |
| 1777437181 | 23.89° C | 79% | 1023.8 hPa | 1.27 mm | - | 657 W/m² | - |
| 1777437121 | 23.89° C | 77% | 1023.7 hPa | 1.27 mm | - | 657 W/m² | - |
| 1777436983 | 23.89° C | 77% | 1023.8 hPa | 1.27 mm | - | 657 W/m² | - |
| 1777436916 | 23.33° C | 79% | 1023.8 hPa | 1.27 mm | - | 608 W/m² | - |
| 1777436845 | 23.33° C | 81% | 1023.8 hPa | 1.27 mm | - | 608 W/m² | - |
| 1777436785 | 22.78° C | 79% | 1023.8 hPa | 1.27 mm | - | 587 W/m² | - |
| 1777436658 | 22.22° C | 83% | 1023.7 hPa | 1.27 mm | - | 548 W/m² | - |
| 1777436585 | 22.22° C | 84% | 1023.7 hPa | 1.27 mm | - | 555 W/m² | - |
| 1777436517 | 21.67° C | 86% | 1023.7 hPa | 1.27 mm | - | 578 W/m² | - |
| 1777436317 | 21.11° C | 89% | 1023.8 hPa | 1.27 mm | - | 566 W/m² | - |
| 1777436246 | 21.11° C | 90% | 1023.8 hPa | 1.27 mm | - | 469 W/m² | - |
| 1777436187 | 21.11° C | 88% | 1023.9 hPa | 1.27 mm | - | 141 W/m² | - |
| 1777436055 | 20.56° C | 86% | 1023.8 hPa | 1.52 mm | - | 118 W/m² | - |
| 1777435991 | 20.56° C | 86% | 1023.7 hPa | 1.52 mm | - | 104 W/m² | - |
| 1777435933 | 20.56° C | 85% | 1023.8 hPa | 1.52 mm | - | 102 W/m² | - |
| 1777435792 | 21.11° C | 85% | 1023.7 hPa | 1.52 mm | - | 86 W/m² | - |
| 1777435722 | 21.11° C | 84% | 1023.9 hPa | 1.52 mm | - | 84 W/m² | - |
| 1777435652 | 21.11° C | 84% | 1023.9 hPa | 1.52 mm | - | 86 W/m² | - |
| 1777435584 | 21.11° C | 85% | 1023.9 hPa | 1.52 mm | - | 86 W/m² | - |
| 1777435449 | 21.11° C | 84% | 1023.9 hPa | 1.52 mm | - | 97 W/m² | - |
| 1777435386 | 21.67° C | 83% | 1023.9 hPa | 1.52 mm | - | 105 W/m² | - |
| 1777435320 | 21.67° C | 82% | 1023.9 hPa | 1.52 mm | - | 102 W/m² | - |
| 1777435191 | 22.22° C | 79% | 1023.8 hPa | 1.02 mm | - | 102 W/m² | - |
* Rain latest hour (hover to see other rain measurements)
** Current wind speed in m/s (hover to see current wind gust speed)